When you browse on this site, cookies collect data to enhance your experience and personalize the content and advertising you see.
Visit our Privacy Policy to learn more. By continuing to use the site, you agree to this use of cookies and data.

Hourly Weather Kalat

Today, 9 August, Sunday

Time Temperature Precipitation Wind Pressure Humidity
00:00 +12°C° 0 mm 1 mps 479 mmHg 63%
01:00 +12°C° 0 mm 1 mps 479 mmHg 65%
02:00 +11°C° 0 mm 1 mps 479 mmHg 66%
03:00 +11°C° 0 mm 1 mps 479 mmHg 68%
04:00 +10°C° 0 mm 1 mps 478 mmHg 69%
05:00 +9°C° 0 mm 1 mps 478 mmHg 74%
06:00 +10°C° 0 mm 1 mps 478 mmHg 68%
07:00 +11°C° 0 mm 1 mps 479 mmHg 63%
08:00 +11°C° 0 mm 1 mps 479 mmHg 58%
09:00 +13°C° 0 mm 1 mps 480 mmHg 51%
10:00 +14°C° 0 mm 1 mps 481 mmHg 44%
11:00 +16°C° 0 mm 2 mps 482 mmHg 37%
12:00 +16°C° 0 mm 2 mps 482 mmHg 36%
13:00 +17°C° 0 mm 3 mps 482 mmHg 35%
14:00 +18°C° 0 mm 4 mps 482 mmHg 34%
15:00 +17°C° 0 mm 4 mps 482 mmHg 37%
16:00 +17°C° 0 mm 4 mps 482 mmHg 39%
17:00 +17°C° 0 mm 4 mps 481 mmHg 42%
18:00 +15°C° 0 mm 4 mps 481 mmHg 47%
19:00 +13°C° 0 mm 3 mps 480 mmHg 52%
20:00 +12°C° 0 mm 3 mps 480 mmHg 58%
21:00 +13°C° 0 mm 2 mps 479 mmHg 61%
22:00 +12°C° 0 mm 2 mps 479 mmHg 64%
23:00 +11°C° 0 mm 1 mps 479 mmHg 67%

Tomorrow, 10 August, Monday

Time Temperature Precipitation Wind Pressure Humidity
00:00 +11°C° 0 mm 1 mps 478 mmHg 69%
01:00 +10°C° 0 mm 1 mps 478 mmHg 70%
02:00 +10°C° 0 mm 1 mps 478 mmHg 72%
03:00 +10°C° 0 mm 1 mps 477 mmHg 73%
04:00 +9°C° 0 mm 1 mps 477 mmHg 75%
05:00 +9°C° 0 mm 1 mps 477 mmHg 77%
06:00 +9°C° 0 mm 1 mps 477 mmHg 72%
07:00 +10°C° 0 mm 1 mps 478 mmHg 68%
08:00 +10°C° 0 mm 1 mps 478 mmHg 63%
09:00 +12°C° 0 mm 1 mps 479 mmHg 55%
10:00 +14°C° 0 mm 1 mps 480 mmHg 48%
11:00 +15°C° 0 mm 1 mps 481 mmHg 40%
12:00 +16°C° 0 mm 2 mps 482 mmHg 38%
13:00 +17°C° 0 mm 3 mps 482 mmHg 36%
14:00 +18°C° 0 mm 3 mps 483 mmHg 33%
15:00 +18°C° 0 mm 4 mps 482 mmHg 36%
16:00 +17°C° 0 mm 4 mps 482 mmHg 39%
17:00 +17°C° 0 mm 4 mps 482 mmHg 42%
18:00 +15°C° 0 mm 4 mps 481 mmHg 47%
19:00 +13°C° 0 mm 4 mps 481 mmHg 51%
20:00 +12°C° 0 mm 3 mps 481 mmHg 56%
21:00 +11°C° 0 mm 3 mps 480 mmHg 59%
22:00 +12°C° 0 mm 2 mps 480 mmHg 62%
23:00 +10°C° 0 mm 2 mps 479 mmHg 65%

Day after tomorrow, 11 August, Tuesday

Time Temperature Precipitation Wind Pressure Humidity
00:00 +9°C° 0 mm 2 mps 479 mmHg 67%
01:00 +10°C° 0 mm 1 mps 478 mmHg 68%
02:00 +9°C° 0 mm 1 mps 478 mmHg 70%
03:00 +9°C° 0 mm 1 mps 478 mmHg 71%
04:00 +8°C° 0 mm 1 mps 477 mmHg 72%
05:00 +8°C° 0 mm 1 mps 477 mmHg 74%
06:00 +8°C° 0 mm 1 mps 477 mmHg 68%
07:00 +9°C° 0 mm 1 mps 478 mmHg 63%
08:00 +8°C° 0 mm 2 mps 478 mmHg 58%
09:00 +10°C° 0 mm 2 mps 479 mmHg 51%
10:00 +12°C° 0 mm 2 mps 480 mmHg 44%
11:00 +14°C° 0 mm 2 mps 481 mmHg 37%
12:00 +15°C° 0 mm 2 mps 481 mmHg 35%
13:00 +16°C° 0 mm 3 mps 482 mmHg 33%
14:00 +17°C° 0 mm 3 mps 482 mmHg 30%
15:00 +17°C° 0 mm 3 mps 482 mmHg 31%
16:00 +17°C° 0 mm 3 mps 482 mmHg 32%
17:00 +17°C° 0 mm 4 mps 482 mmHg 33%
18:00 +14°C° 0 mm 4 mps 481 mmHg 37%
19:00 +13°C° 0 mm 3 mps 481 mmHg 42%
20:00 +12°C° 0 mm 3 mps 480 mmHg 46%
21:00 +11°C° 0 mm 3 mps 480 mmHg 49%
22:00 +10°C° 0 mm 2 mps 479 mmHg 52%
23:00 +9°C° 0 mm 2 mps 479 mmHg 55%

12 August, Wednesday

Time Temperature Precipitation Wind Pressure Humidity
00:00 +9°C° 0 mm 2 mps 478 mmHg 57%
01:00 +8°C° 0 mm 2 mps 478 mmHg 59%
02:00 +8°C° 0 mm 1 mps 477 mmHg 62%
03:00 +8°C° 0 mm 1 mps 477 mmHg 64%
04:00 +7°C° 0 mm 1 mps 477 mmHg 65%
05:00 +7°C° 0 mm 1 mps 476 mmHg 67%
06:00 +7°C° 0 mm 1 mps 477 mmHg 62%
07:00 +8°C° 0 mm 1 mps 477 mmHg 57%
08:00 +9°C° 0 mm 1 mps 477 mmHg 52%
09:00 +9°C° 0 mm 2 mps 478 mmHg 45%
10:00 +12°C° 0 mm 2 mps 480 mmHg 38%
11:00 +14°C° 0 mm 2 mps 481 mmHg 31%
12:00 +15°C° 0 mm 2 mps 481 mmHg 28%
13:00 +16°C° 0 mm 3 mps 482 mmHg 26%
14:00 +17°C° 0 mm 3 mps 482 mmHg 24%
15:00 +17°C° 0 mm 3 mps 482 mmHg 24%
16:00 +17°C° 0 mm 4 mps 482 mmHg 25%
17:00 +17°C° 0 mm 4 mps 482 mmHg 26%
18:00 +14°C° 0 mm 4 mps 481 mmHg 30%
19:00 +13°C° 0 mm 3 mps 481 mmHg 34%
20:00 +12°C° 0 mm 3 mps 480 mmHg 37%
21:00 +11°C° 0 mm 3 mps 480 mmHg 40%
22:00 +10°C° 0 mm 2 mps 480 mmHg 43%
23:00 +9°C° 0 mm 2 mps 479 mmHg 46%

13 August, Thursday

Time Temperature Precipitation Wind Pressure Humidity
00:00 +10°C° 0 mm 1 mps 479 mmHg 48%
01:00 +9°C° 0 mm 1 mps 478 mmHg 49%
02:00 +9°C° 0 mm 1 mps 478 mmHg 51%
03:00 +8°C° 0 mm 1 mps 477 mmHg 53%
04:00 +7°C° 0 mm 1 mps 477 mmHg 55%
05:00 +7°C° 0 mm 1 mps 476 mmHg 56%
06:00 +8°C° 0 mm 1 mps 477 mmHg 51%
07:00 +7°C° 0 mm 2 mps 478 mmHg 45%
08:00 +8°C° 0 mm 2 mps 478 mmHg 40%
09:00 +9°C° 0 mm 2 mps 479 mmHg 34%
10:00 +12°C° 0 mm 2 mps 480 mmHg 29%
11:00 +14°C° 0 mm 2 mps 481 mmHg 23%
12:00 +14°C° 0 mm 3 mps 481 mmHg 22%
13:00 +16°C° 0 mm 3 mps 482 mmHg 21%
14:00 +17°C° 0 mm 3 mps 482 mmHg 19%
15:00 +15°C° 0 mm 4 mps 482 mmHg 20%
16:00 +15°C° 0 mm 4 mps 481 mmHg 21%
17:00 +15°C° 0 mm 4 mps 481 mmHg 22%
18:00 +14°C° 0 mm 4 mps 481 mmHg 25%
19:00 +13°C° 0 mm 4 mps 480 mmHg 28%
20:00 +11°C° 0 mm 4 mps 480 mmHg 30%
21:00 +10°C° 0 mm 3 mps 479 mmHg 32%
22:00 +10°C° 0 mm 3 mps 479 mmHg 34%
23:00 +9°C° 0 mm 3 mps 479 mmHg 36%

14 August, Friday

Time Temperature Precipitation Wind Pressure Humidity
00:00 +8°C° 0 mm 2 mps 478 mmHg 37%
01:00 +7°C° 0 mm 2 mps 477 mmHg 39%
02:00 +7°C° 0 mm 2 mps 477 mmHg 40%
03:00 +6°C° 0 mm 2 mps 476 mmHg 41%
04:00 +6°C° 0 mm 1 mps 476 mmHg 42%
05:00 +6°C° 0 mm 1 mps 475 mmHg 43%
06:00 +7°C° 0 mm 1 mps 476 mmHg 39%
07:00 +7°C° 0 mm 1 mps 476 mmHg 36%
08:00 +8°C° 0 mm 1 mps 477 mmHg 32%
09:00 +9°C° 0 mm 2 mps 478 mmHg 29%
10:00 +10°C° 0 mm 2 mps 479 mmHg 26%
11:00 +13°C° 0 mm 2 mps 480 mmHg 23%
12:00 +13°C° 0 mm 3 mps 480 mmHg 22%
13:00 +14°C° 0 mm 3 mps 481 mmHg 21%
14:00 +16°C° 0 mm 3 mps 481 mmHg 20%
15:00 +15°C° 0 mm 4 mps 481 mmHg 21%
16:00 +15°C° 0 mm 4 mps 481 mmHg 22%
17:00 +15°C° 0 mm 4 mps 481 mmHg 22%
18:00 +14°C° 0 mm 4 mps 480 mmHg 25%
19:00 +13°C° 0 mm 4 mps 480 mmHg 29%
20:00 +12°C° 0 mm 4 mps 479 mmHg 32%
21:00 +11°C° 0 mm 3 mps 479 mmHg 35%
22:00 +10°C° 0 mm 3 mps 479 mmHg 38%
23:00 +9°C° 0 mm 3 mps 478 mmHg 41%
Show more